TimeEET,TemperatureF,Dew PointF,Humidity,Sea Level PressureIn,VisibilityMPH,Wind Direction,Wind SpeedMPH,Gust SpeedMPH,PrecipitationIn,Events,Conditions,WindDirDegrees,DateUTC
12:20 AM,41.0,33.8,76,30.30,6.2,NNE,3.5,-,N/A,,Scattered Clouds,30,2013-01-13 22:20:00
12:50 AM,41.0,33.8,76,30.30,6.2,NNE,4.6,-,N/A,,Scattered Clouds,20,2013-01-13 22:50:00
1:20 AM,42.8,35.6,76,30.30,6.2,Variable,5.8,-,N/A,,Scattered Clouds,0,2013-01-13 23:20:00
1:50 AM,41.0,33.8,76,30.33,6.2,North,3.5,-,N/A,,Scattered Clouds,10,2013-01-13 23:50:00
2:00 AM,40,33,69,30.35,6,North,3.5,,,,Partly Cloudy,10,2013-01-14 00:00:00
2:20 AM,41.0,35.6,81,30.33,6.2,NNE,3.5,-,N/A,,Scattered Clouds,20,2013-01-14 00:20:00
2:50 AM,39.2,35.6,87,30.33,6.2,North,4.6,-,N/A,,Scattered Clouds,350,2013-01-14 00:50:00
3:20 AM,41.0,35.6,81,30.33,6.2,Variable,2.3,-,N/A,,Scattered Clouds,0,2013-01-14 01:20:00
3:50 AM,41.0,35.6,81,30.33,6.2,ENE,3.5,-,N/A,,Scattered Clouds,60,2013-01-14 01:50:00
4:20 AM,41.0,33.8,76,30.33,6.2,ENE,4.6,-,N/A,,Scattered Clouds,70,2013-01-14 02:20:00
4:50 AM,41.0,35.6,81,30.33,6.2,ENE,3.5,-,N/A,,Scattered Clouds,70,2013-01-14 02:50:00
5:20 AM,41.0,35.6,81,30.33,6.2,East,4.6,-,N/A,,Scattered Clouds,90,2013-01-14 03:20:00
5:50 AM,41.0,35.6,81,30.33,6.2,East,5.8,-,N/A,,Scattered Clouds,100,2013-01-14 03:50:00
6:20 AM,41.0,37.4,87,30.33,6.2,East,5.8,-,N/A,,Scattered Clouds,100,2013-01-14 04:20:00
6:50 AM,41.0,37.4,87,30.33,6.2,ESE,6.9,-,N/A,,Scattered Clouds,120,2013-01-14 04:50:00
7:20 AM,41.0,37.4,87,30.36,6.2,SE,6.9,-,N/A,,Scattered Clouds,130,2013-01-14 05:20:00
7:50 AM,41.0,37.4,87,30.36,6.2,East,4.6,-,N/A,,Scattered Clouds,100,2013-01-14 05:50:00
8:00 AM,41,37,80,30.37,6,East,4.6,,,,Partly Cloudy,100,2013-01-14 06:00:00
8:20 AM,42.8,37.4,81,30.36,6.2,East,6.9,-,N/A,,Scattered Clouds,100,2013-01-14 06:20:00
8:50 AM,44.6,37.4,76,30.36,6.2,ESE,8.1,-,N/A,,Partly Cloudy,120,2013-01-14 06:50:00
9:20 AM,44.6,37.4,76,30.39,6.2,ESE,8.1,-,N/A,,Partly Cloudy,120,2013-01-14 07:20:00
9:50 AM,42.8,35.6,76,30.36,6.2,ESE,6.9,-,N/A,,Partly Cloudy,110,2013-01-14 07:50:00
10:20 AM,44.6,35.6,71,30.36,6.2,ESE,5.8,-,N/A,,Partly Cloudy,110,2013-01-14 08:20:00
10:50 AM,44.6,35.6,71,30.39,6.2,ESE,6.9,-,N/A,,Partly Cloudy,120,2013-01-14 08:50:00
11:20 AM,44.6,35.6,71,30.36,6.2,ESE,4.6,-,N/A,,Partly Cloudy,120,2013-01-14 09:20:00
11:50 AM,46.4,37.4,71,30.36,6.2,SE,4.6,-,N/A,,Partly Cloudy,130,2013-01-14 09:50:00
12:20 PM,46.4,37.4,71,30.36,6.2,SSE,4.6,-,N/A,,Partly Cloudy,150,2013-01-14 10:20:00
12:50 PM,46.4,37.4,71,30.36,6.2,SSE,4.6,-,N/A,,Partly Cloudy,150,2013-01-14 10:50:00
1:20 PM,46.4,35.6,66,30.33,6.2,SSW,3.5,-,N/A,,Partly Cloudy,200,2013-01-14 11:20:00
1:50 PM,46.4,35.6,66,30.33,6.2,South,4.6,-,N/A,,Scattered Clouds,170,2013-01-14 11:50:00
2:00 PM,47,35,51,30.36,6,South,4.6,,,,Scattered Clouds,170,2013-01-14 12:00:00
2:20 PM,48.2,37.4,66,30.33,6.2,South,3.5,-,N/A,,Scattered Clouds,190,2013-01-14 12:20:00
2:50 PM,46.4,35.6,66,30.33,6.2,SW,4.6,-,N/A,,Scattered Clouds,230,2013-01-14 12:50:00
3:20 PM,48.2,35.6,62,30.33,6.2,Variable,2.3,-,N/A,,Scattered Clouds,0,2013-01-14 13:20:00
3:50 PM,48.2,35.6,62,30.33,6.2,Variable,1.2,-,N/A,,Scattered Clouds,0,2013-01-14 13:50:00
4:20 PM,46.4,33.8,62,30.33,6.2,SW,2.3,-,N/A,,Scattered Clouds,220,2013-01-14 14:20:00
4:50 PM,44.6,35.6,71,30.33,6.2,South,3.5,-,N/A,,Scattered Clouds,170,2013-01-14 14:50:00
5:20 PM,44.6,35.6,71,30.33,-9999.0,Variable,2.3,-,N/A,,Clear,0,2013-01-14 15:20:00
5:50 PM,46.4,35.6,66,30.33,-9999.0,Variable,2.3,-,N/A,,Clear,0,2013-01-14 15:50:00
6:20 PM,42.8,33.8,70,30.36,-9999.0,Variable,1.2,-,N/A,,Clear,0,2013-01-14 16:20:00
6:50 PM,41.0,33.8,76,30.33,-9999.0,Variable,2.3,-,N/A,,Clear,0,2013-01-14 16:50:00
7:20 PM,42.8,33.8,70,30.33,-9999.0,NNW,3.5,-,N/A,,Clear,330,2013-01-14 17:20:00
8:00 PM,48,33,43,30.35,12,East,3.5,,,,,100,2013-01-14 18:00:00
8:20 PM,48.2,32.0,54,30.33,-9999.0,Variable,3.5,-,N/A,,Clear,0,2013-01-14 18:20:00
8:50 PM,46.4,35.6,66,30.33,-9999.0,Variable,2.3,-,N/A,,Clear,0,2013-01-14 18:50:00
9:20 PM,44.6,35.6,71,30.33,-9999.0,Variable,2.3,-,N/A,,Clear,0,2013-01-14 19:20:00
9:50 PM,42.8,33.8,70,30.33,-9999.0,East,1.2,-,N/A,,Clear,100,2013-01-14 19:50:00
10:20 PM,41.0,33.8,76,30.33,-9999.0,Calm,Calm,-,N/A,,Clear,0,2013-01-14 20:20:00
10:50 PM,44.6,35.6,71,30.33,-9999.0,Variable,2.3,-,N/A,,Clear,0,2013-01-14 20:50:00
11:20 PM,42.8,35.6,76,30.33,-9999.0,Variable,2.3,-,N/A,,Clear,0,2013-01-14 21:20:00
11:50 PM,42.8,37.4,81,30.33,-9999.0,Variable,2.3,-,N/A,,Clear,0,2013-01-14 21:50:00